Location: Krasnoyarskiy Pitomnik
(51.1333°N, 71.6167°E)
Time: 18:25:35
(UTC+00:00)

Vanguard 2 - Pass Details

Date: 29 April 2024
Orbit: 553 x 2914 km, 32.9° (Epoch: 22 May)

Event Time Altitude Azimuth Distance (km) Brightness Sun altitude
Exits shadow 19:21:23 33° 170° (S) 3,355 10.2 -24.0°
Maximum altitude 19:22:18 33° 164° (SSE) 3,401 10.2 -24.0°
Drops below altitude 10° 19:35:50 10° 109° (ESE) 5,611 11.8 -23.8°
Sets 19:41:07 0° 102° (ESE) 6,740 12.3 -23.7°
